This is the latest recevied weather packets stored in our database for station/object JH7UAX-10. If no packets are shown the sender has not sent any weather packets the latest 10 day(s).
| Time | Temp. | Humidity | Pressure | Rain* | Wind** | Luminosity | Snow |
|---|---|---|---|---|---|---|---|
| 1777531079 | 16.11° C | 51% | 1032.3 hPa | 0 mm | - | - | - |
| 1777530179 | 16.11° C | 49% | 1032.3 hPa | 0 mm | - | - | - |
| 1777529707 | 16.67° C | 49% | 1032.3 hPa | 0 mm | - | - | - |
| 1777529279 | 16.67° C | 48% | 1032.4 hPa | 0 mm | - | - | - |
| 1777528806 | 16.67° C | 48% | 1032.2 hPa | 0 mm | - | - | - |
| 1777528378 | 16.67° C | 46% | 1032.2 hPa | 0 mm | - | - | - |
| 1777527478 | 16.11° C | 49% | 1032.2 hPa | 0 mm | - | - | - |
| 1777527006 | 16.67° C | 49% | 1032.1 hPa | 0 mm | - | - | - |
| 1777526580 | 16.11° C | 47% | 1032.2 hPa | 0 mm | - | - | - |
| 1777526106 | 16.11° C | 46% | 1032.3 hPa | 0 mm | - | - | - |
| 1777525680 | 16.11° C | 47% | 1032.4 hPa | 0 mm | - | - | - |
| 1777525205 | 16.67° C | 46% | 1032.5 hPa | 0 mm | - | - | - |
| 1777524779 | 16.67° C | 46% | 1032.5 hPa | 0 mm | - | - | - |
| 1777524306 | 16.11° C | 47% | 1032.4 hPa | 0 mm | - | - | - |
| 1777523880 | 16.67° C | 46% | 1032.6 hPa | 0 mm | - | - | - |
| 1777522979 | 16.67° C | 45% | 1032.6 hPa | 0 mm | - | - | - |
| 1777522507 | 16.67° C | 42% | 1032.6 hPa | 0 mm | - | - | - |
| 1777522078 | 16.67° C | 46% | 1032.7 hPa | 0 mm | - | - | - |
| 1777521178 | 16.67° C | 38% | 1032.5 hPa | 0 mm | - | - | - |
| 1777520706 | 16.67° C | 36% | 1032.6 hPa | 0 mm | - | - | - |
| 1777520280 | 17.22° C | 33% | 1032.5 hPa | 0 mm | - | - | - |
| 1777519806 | 17.22° C | 31% | 1032.6 hPa | 0 mm | - | - | - |
| 1777519380 | 17.22° C | 33% | 1032.6 hPa | 0 mm | - | - | - |
| 1777518905 | 17.22° C | 28% | 1032.7 hPa | 0 mm | - | - | - |
| 1777518480 | 17.78° C | 36% | 1032.8 hPa | 0 mm | - | - | - |
* Rain latest hour (hover to see other rain measurements)
** Current wind speed in m/s (hover to see current wind gust speed)